Location: Mentone
(34.5413°N, 85.5351°W)
Time: 04:26:36
(UTC-05:00)

Vanguard 2 Rocket - Visible Passes

Search period start: 23 August 2014 00:00
Search period end: 02 September 2014 00:00
Orbit: 554 x 3336 km, 32.9° (Epoch: 20 August)

Date Brightness Start Highest point End Pass type
(mag) Time Alt. Az. Time Alt. Az. Time Alt. Az.
23 Aug 9.3 03:20:49 20° SSE 03:20:49 20° SSE 03:24:39 10° SE visible
23 Aug 9.5 05:28:14 10° SW 05:31:04 11° SSW 05:34:18 10° SSW visible
23 Aug 8.1 21:47:42 10° WSW 21:48:48 17° WSW 21:48:48 17° WSW visible
24 Aug 9.4 04:32:38 15° SSW 04:32:38 15° SSW 04:37:25 10° S visible
24 Aug 6.3 20:49:30 10° SW 20:53:47 42° SSE 20:54:02 41° SSE visible
25 Aug 9.8 03:38:25 11° SSE 03:38:25 11° SSE 03:39:11 10° SSE visible
25 Aug 7.1 19:51:06 10° SW 19:55:50 32° SSE 19:59:12 12° E visible
25 Aug 8.5 22:04:27 10° W 22:05:08 14° WSW 22:05:08 14° WSW visible
26 Aug 6.1 21:06:05 10° WSW 21:10:16 58° SSW 21:10:16 58° SSW visible
27 Aug 6.5 20:07:23 10° WSW 20:12:38 49° SSE 20:15:22 19° E visible
28 Aug 6.7 21:22:52 10° W 21:26:21 47° WSW 21:26:21 47° WSW visible
29 Aug 6.2 20:24:01 10° WSW 20:29:27 66° S 20:31:24 30° E visible
30 Aug 7.5 21:39:43 10° W 21:42:19 31° W 21:42:19 31° W visible
31 Aug 6.1 20:40:50 10° W 20:46:16 74° S 20:47:19 49° ESE visible
01 Sep 6.6 19:41:28 10° WSW 19:48:13 72° S 19:52:19 12° E visible
01 Sep 8.3 21:56:36 10° W 21:58:13 20° W 21:58:13 20° W visible
